Location: Beekmeers
(50.8953°N, 3.6968°E)
Time: 18:54:08
(UTC+00:00)

H-2A R/B - Pass Details

Date: 15 August 2024
Orbit: 566 x 633 km, 98.4° (Epoch: 06 September)

Event Time Altitude Azimuth Distance (km) Brightness Sun altitude
Rises 00:47:20 0° 10° (N) 2,858 6.9 -23.9°
Reaches altitude 10° 00:49:32 10° 5° (N) 1,962 5.7 -23.9°
Maximum altitude 00:53:38 48° 291° (WNW) 808 2.6 -23.7°
Enters shadow 00:53:49 48° 283° (WNW) 812 2.5 -23.7°
